カタログに戻る

THORAD DELTA 1 DEB

LostSSO
NORAD 42626·DEBRIS·🇺🇸 United States

打ち上げ Nov 15, 1974 から Vandenberg Space Force Base

Loading…

次のパス (今後24時間)

TLE

古いSource: Space-Track

元期: Sep 19, 2025, 17:09 UTC

1 42626U 74089GT  25262.71493641  .00000030  00000-0  42428-3 0  9996
2 42626 101.7164 229.5669 0124679  74.5538 286.9270 12.59061206544247

AllMySatでTHORAD DELTA 1 DEBをリアルタイム追跡

Download on the App Store